User: anonymous
Location: Caltech
(34.1382°N, 118.1253°W)
Time: 12:51:13
(UTC-07:00)
Language:

AO-27 - Orbit

View from above orbital plane
View from above orbital plane
View from above satellite
View from above satellite

Ground track
Ground track

The orbit data is extracted from the following two-line orbital elements,

1 22825U 93061C   14202.42986061 -.00000004  00000-0  15708-4 0  7193
2 22825 098.6636 148.3311 0008391 189.6338 318.1191 14.29730602 85673
Epoch (UTC): 21 July 2014 10:18:59
Eccentricity: 0.0008391
inclination: 98.6636°
perigee height: 786 km
apogee height: 798 km
right ascension of ascending node: 148.3311°
argument of perigee: 189.6338°
revolutions per day: 14.29730602
mean anomaly at epoch: 318.1191°
orbit number at epoch: 8567

The dashed part of the orbit path shows where the satellite is in the earth's shadow,  

DLR